sat.trackr.live / text

‹ back to catalog

STARLINK-35816

NORAD 66499 · 2025-263Q

PAYLOAD ACTIVE UNKNOWN

§ Identity

Operator
Country
US
Launch date
2025-11-15
Launch site
AFETR
Launch vehicle
Mass (kg)
RCS (m²)

Purposes: comms

External: N2YO · Heavens-Above · Gunter

§ Orbital elements

Epoch: 2026-05-24T17:23:13.420032Z

Period
94.27 min
Inclination
42.9939°
Eccentricity
0.0003016
Mean motion
15.27584761 rev/d
Perigee alt
481.0 km
Apogee alt
485.1 km
Semi-major
6,861.2 km
B*
6.8234e-4
RAAN
281.6301°
Arg perigee
246.6819°
Mean anomaly
113.3716°
Rev number
3,052

§ Raw data

STARLINK-358161 66499U 25263Q   26144.72446088  .00018566  00000+0  68234-3 0  99992 66499  42.9939 281.6301 0003016 246.6819 113.3716 15.27584761 30527

JSON: /api/v1/satellites/66499 · /tle

For live sub-satellite position, see the globe view (requires WebGL).

§ Visibility from observer

Set your observer location to see the next 7 days of passes ≥ 10°. The values pass through the URL so the page stays shareable.

No JS? Fill the form by hand. The geolocation button needs JavaScript.